Regional Weather Roundup
Issued by NWS Green Bay, WI

Home | Current Version | Previous Version | Graphics & Text | Print | Product List | Glossary Off
Versions: 1 2 3 4 5 6 7 8 9 10 11 12 13 14 15 16 17 18 19 20 21 22 23 24 25 26 27 28 29 30 31 32 33 34 35 36 37 38 39 40 41 42 43 44 45 46 47 48 49 50

000
ASUS43 KGRB 160000
RWRGRB

NORTH-CENTRAL AND NORTHEAST WISCONSIN REGIONAL WEATHER ROUNDUP
NATIONAL WEATHER SERVICE GREEN BAY WI
600 PM CST FRI DEC 15 2017

WIZ005-009-010>012-018-019-160100-
NORTH CENTRAL WISCONSIN

CITY           SKY/WX    TMP DP  RH WIND       PRES   REMARKS
IRONWOOD       PTCLDY    -1  -4  87 CALM      29.78R
MANITOWISH WTR NOT AVBL
ARBOR VITAE    NOT AVBL
EAGLE RIVER    NOT AVBL
LAND O LAKES   NOT AVBL
RHINELANDER    CLOUDY     3   2  95 CALM      29.76R
PHILLIPS       NOT AVBL
ANTIGO         NOT AVBL
TOMAHAWK       NOT AVBL
MERRILL        NOT AVBL
$$

WIZ013-073-160100-
NORTHEAST WISCONSIN

CITY           SKY/WX    TMP DP  RH WIND       PRES   REMARKS
IRON MOUNTAIN  CLOUDY    14   6  70 W6        29.76R WCI   5
MARINETTE      CLEAR     12   5  73 W5        29.84R WCI   4
$$

WIZ017-030-035>037-045-160100-
CENTRAL WISCONSIN

CITY           SKY/WX    TMP DP  RH WIND       PRES   REMARKS
MEDFORD        NOT AVBL
WAUSAU         CLOUDY    14   8  77 CALM      29.78R
MOSINEE        MOCLDY    16   9  73 CALM      29.80R
MARSHFIELD     CLOUDY    13   9  84 CALM      29.77S
WISC RAPIDS    CLOUDY    21  12  68 NE3       29.82S
STEVENS POINT  NOT AVBL
WAUPACA        NOT AVBL
SHAWANO        NOT AVBL
CLINTONVILLE   NOT AVBL
WAUTOMA        CLOUDY    23  16  74 CALM      29.83R
$$

WIZ038-039-048-051-160100-
FOX VALLEY

CITY           SKY/WX    TMP DP  RH WIND       PRES   REMARKS
NWS GREEN BAY  CLOUDY    10   5  80 W3        29.84R
APPLETON       CLOUDY    19   7  58 NW5       29.81R
OSHKOSH        CLOUDY    22  14  71 CALM      29.83R
FOND DU LAC    CLOUDY    23  16  74 CALM      29.83R
$$

WIZ022-050-052-160100-
EAST CENTRAL WISCONSIN

CITY           SKY/WX    TMP DP  RH WIND       PRES   REMARKS
EPHRAIM        NOT AVBL
WASHINGTON ISL NOT AVBL
STURGEON BAY   MOCLDY    17   9  70 NW10      29.82S WCI   5
MANITOWOC      CLOUDY    11   5  77 CALM      29.85R
SHEBOYGAN      CLOUDY    20  13  74 CALM      29.84R
$$

LMZ563-521-522-541>543-160100-
LAKESHORE

STATION/POSITION TIME  TEMP    WIND        PRES    VSBY  WAVE
                       AIR SEA DIR/SP/G                  HT/PER
                 (UTC) (F)     (DEG/KT/KT) (MB)    (MI)  (FT/S)
SHEBOYGAN LKSHOR 2300   22     290/  5/  6 1011.4R
KEWAUNEE LKSHORE 2330   14     320/  2/  2 1009.5F
NORTHPORT PIER   2340   21     280/  6/ 10 1009.1R
MENOMINEE LKSHOR 2330   17     250/  7/  9 1009.8R
$$




USA.gov is the U.S. government's official web portal to all federal, state and local government web resources and services.